GAOFEN 13

Last updated on Wed Apr 05 2023 00:02:48 GMT+0000 (Coordinated Universal Time)

1 46610U 20071A 23094.35049267 -.00000361 00000+0 00000+0 0 9990 2 46610 0.0725 77.8486 0003797 25.4969 333.0533 1.00269946 9189
UTC large
Height (km)
Speed (km/s)
/
Latitude / Longitude
Inclination (degrees)
Orbital Period (minutes)
Azimuth
Elevation
Range (km)
Doppler Factor

Next 0 passes for location: London (51.5072 / 0.1276)

Sorry there are no passes over London.
GAOFEN 13